Location: Alpha Ridge Park
(39.3209°N, 76.9128°W)
Time: 05:58:05
(UTC-04:00)

S-56A Canister/Altair - Pass Details

Date: 20 May 2019
Orbit: 633 x 2499 km, 38.9° (Epoch: 18 June)

Event Time Altitude Azimuth Distance (km) Brightness Sun altitude
Rises 03:44:29 0° 244° (WSW) 3,648 - -19.9°
Reaches altitude 10° 03:46:42 10° 241° (WSW) 2,885 - -19.6°
Exits shadow 03:49:29 29° 235° (SW) 2,041 9.1 -19.3°
Maximum altitude 03:53:49 70° 159° (SSE) 1,484 8.8 -18.7°
Drops below altitude 10° 04:04:51 10° 79° (E) 4,349 12.2 -17.3°
Sets 04:08:58 0° 78° (ENE) 5,606 12.9 -16.7°
